Regional Weather Roundup
Issued by NWS

Home | Current Version | Previous Version | Text Only | Print | Product List | Glossary Off
Versions: 1 2 3 4 5 6 7 8 9 10 11 12 13 14 15 16 17 18 19 20 21 22 23 24 25 26 27

000
ASUS45 KSLC 051310
RWRUT

UTAH REGIONAL WEATHER ROUNDUP
NATIONAL WEATHER SERVICE SALT LAKE CITY UT
600 AM MST MON DEC 05 2016

UTZ001>011-023>025-051400-

NORTHERN UTAH

CITY           SKY/WX    TMP DP  RH WIND       PRES   REMARKS
BRIGHAM CITY     N/A     30   1  28 NW17G28   29.97R WCI  18
HILL AFB       CLOUDY    29   5  36 N18       29.93R WCI  17
LOGAN          CLOUDY   N/A N/A N/A NW18G30   29.94R
OGDEN          CLOUDY    30   6  36 N10G21    29.95R WCI  21
SALT LAKE CITY LGT SNOW  32  21  64 N3        29.97R
TOOELE VALLEY  CLOUDY    32  18  55 W12       30.01R WCI  23
WENDOVER       PTCLDY    30  10  43 NW24G35   29.93S WCI  16
HEBER CITY     MOCLDY    32  21  64 NW8G17    29.81R WCI  25
WEST JORDAN    CLOUDY    32  25  76 W13G22    29.97R WCI  22

$$

UTZ011>015-024>027-051400-

CENTRAL/NORTHEAST UTAH

CITY           SKY/WX    TMP DP  RH WIND       PRES   REMARKS
PROVO AIRPORT  MOCLDY    34  21  59 NW31G40   29.91R WCI  20
MOAB/CANYONLAN PTCLDY    24  17  74 W3        29.81F
DELTA          MOCLDY    32  21  64 N15G22    29.88R WCI  22
PRICE          CLOUDY    26  17  68 NW3       29.81R
RICHFIELD      MOCLDY    41  19  42 SW8       29.84R
ROOSEVELT      CLOUDY    25  19  80 CALM      29.78R
VERNAL         CLOUDY    21  14  74 W6        29.75R WCI  13

$$

UTZ013>016-019>022-027-051400-

SOUTHERN UTAH

CITY           SKY/WX    TMP DP  RH WIND       PRES   REMARKS
BRYCE CANYON   PTCLDY    33  14  45 W9        29.89F WCI  25
CEDAR CITY     CLEAR     29  13  51 CALM      29.89R
MILFORD        PTCLDY    38   8  29 S21       29.86S WCI  28
ST GEORGE      PTSUNNY   28  16  59 SW3       29.95S
HANKSVILLE     PTCLDY    21  16  79 CALM      29.85F
KANAB          PTCLDY    27  18  69 NE5       29.97R WCI  21
BLANDING       CLOUDY    27  18  67 N6        29.98S WCI  21

$$

REGIONAL REPORTS     COLORADO/ARIZONA

CITY           SKY/WX    TMP DP  RH WIND       PRES   REMARKS
CRAIG, CO      CLOUDY    25  14  63 CALM      29.69F
GRAND JUNCTION CLOUDY    26  22  84 CALM      29.82R
RIFLE, CO      CLOUDY    25  20  81 SW3       29.79F
MONTROSE, CO   CLOUDY    29  20  69 VRB3      29.81F
CORTEZ, CO     CLOUDY    23  20  88 CALM      29.91F
COLORADO CITY    N/A     21  19  93 E3        29.95R
PAGE, AZ       PTCLDY    32  17  54 CALM      29.89F
GRAND CANYON   PTCLDY    19  16  88 CALM      29.96S
KINGMAN, AZ    CLEAR     44   9  23 NE6       29.91R
FLAGSTAFF, AZ  CLEAR     21  14  74 CALM      29.99R

$$

REGIONAL REPORTS    NEVADA/IDAHO/WYOMING

CITY           SKY/WX    TMP DP  RH WIND       PRES   REMARKS
LAS VEGAS, NV  MOCLDY    43  13  29 CALM      29.90R
ELY, NY        CLEAR     29  17  61 CALM      29.93R
ELKO, NV       FLURRIES  27  14  58 CALM      30.02R
POCATELLO, ID  PTCLDY    20  16  84 W17       29.96R WCI   5
BURLEY, ID     CLEAR     20  14  77 W17       29.99R WCI   5
FORT BRIDGER,  CLOUDY    21  13  71 W21G31    29.80S WCI   5
EVANSTON, WY   CLOUDY    19  10  68 NW12      29.82R WCI   7
ROCK SPRINGS,  LGT SNOW  20  15  81 W38G49    29.72R WCI  -1

$$




USA.gov is the U.S. government's official web portal to all federal, state and local government web resources and services.